CZ-4C DEB, 42671

Orbit data source: Space-Track

CZ-4C DEB, 42671 is space debris in SSO originally from a launch on Thu, 26 Nov 2015 UTC launched from the Taiyaun Space Center, China (TSC). Debris objects in space refer to the collection of defunct objects orbiting the Earth. Examples of debris include non-operational satellites, rocket bodies, and fragments generated from explosions, collisions, or faulty payload assembly.

Loading next visibility...
Identifier
42671, 2015-069D
Orbit
SSO
Country
Flag of CNCN / PRC
Related business
Manufacturer
Unknown
Mission
Spacecraft
Bus & Motor
Unknown
Mass
Unknown
Launch date (UTC)
2015-11-26 (11 years ago)
Launch vehicle
Unknown
Launch site
Taiyaun Space Center, China (TSC)
Object type
Payload
Rocket body
Debris
Shape & HBR
Unknown shape, 0.1 m
Radar Cross Section
Small (<0.1 m²)

Expand to show TLE details & history
Last TLE update: 2 days ago

TLE from 2 days ago
0 CZ-4C DEB
1 42671U 15069D   26171.08262792  .00003876  00000-0  49619-3 0  9990
2 42671  97.7853  32.1577 0112172   3.3116 356.8812 14.77532137556924
Epoch: 2026-06-20T01:58Z
TLE epoch observation values (Epoch: 2026-06-20T01:58:59.052Z)
Latitude
-0.00003°
Longitude
94.1093°
Altitude
561.558 km
Speed
7.623 km/s
True Right ascension
02h 08m 37s
True Declination
0° 00' 00"
Sunlit
Object was in daylight at epoch
Visualization orbit readout
Latitude
Unknown
Longitude
Unknown
Altitude
Unknown
Speed
Unknown
Apparent Right ascension
Unknown
Apparent Declination
Unknown
Sunlit
N/A
Visualization observer readout
Local Sidereal Time
21:38:46
Azimuth
Unknown
Elevation
Unknown
Doppler factor
Unknown
Orbital elements
Apogee altitude
712.822 km
Perigee altitude
555.505 km
Semi-major axis
7,012.3 km
Eccentricity
0.01122
Inclination
97.7853°
RAAN
32.1577°
Arg. of periapsis
3.3116°
True anomaly
356.81027°
Mean anomaly
356.8812°
Eccentric anomaly
356.84584°
Mean motion
3.69617 °/min
Orbital period
97.4 mins
BSTAR
0.00049619
Loading maneuver chart data...
Computing Atmospheric mass density...
Loading historical data...
Loading historical data...
Loading historical data...
Loading historical data...
Loading historical data...
Loading historical data...
Loading historical data...
Other satellites on launch #69 in the year 2015 (2015-11-26 UTC)

Documentation

Showing up to 5 results
|